This is the latest recevied weather packets stored in our database for station/object K8GLX. If no packets are shown the sender has not sent any weather packets the latest 10 day(s).
| Time | Temp. | Humidity | Pressure | Rain* | Wind** | Luminosity | Snow |
|---|---|---|---|---|---|---|---|
| 1777816029 | 9.44° C | 41% | 1016 hPa | 0 mm | - | 422 W/m² | - |
| 1777815862 | 9.44° C | 41% | 1016 hPa | 0 mm | - | 350 W/m² | - |
| 1777815428 | 9.44° C | 40% | 1015.9 hPa | 0 mm | - | 276 W/m² | - |
| 1777815134 | 9.44° C | 40% | 1015.9 hPa | 0 mm | - | 230 W/m² | - |
| 1777814829 | 9.44° C | 41% | 1016 hPa | 0 mm | - | 409 W/m² | - |
| 1777814535 | 9.44° C | 42% | 1016.1 hPa | 0 mm | - | 372 W/m² | - |
| 1777814229 | 8.89° C | 43% | 1015.9 hPa | 0 mm | - | 343 W/m² | - |
| 1777813934 | 8.33° C | 42% | 1016.2 hPa | 0 mm | - | 349 W/m² | - |
| 1777813629 | 8.33° C | 44% | 1016.1 hPa | 0 mm | - | 327 W/m² | - |
| 1777813335 | 8.33° C | 46% | 1016.2 hPa | 0 mm | - | 157 W/m² | - |
| 1777813032 | 8.33° C | 47% | 1016.1 hPa | 0 mm | - | 111 W/m² | - |
| 1777812861 | 8.89° C | 46% | 1016 hPa | 0 mm | - | 194 W/m² | - |
| 1777812428 | 8.33° C | 47% | 1016.1 hPa | 0 mm | - | 307 W/m² | - |
| 1777812135 | 7.78° C | 48% | 1016.1 hPa | 0 mm | - | 290 W/m² | - |
| 1777811829 | 7.78° C | 49% | 1016.2 hPa | 0 mm | - | 239 W/m² | - |
| 1777811535 | 7.78° C | 51% | 1016.1 hPa | 0 mm | - | 248 W/m² | - |
| 1777811229 | 7.78° C | 48% | 1016.1 hPa | 0 mm | - | 207 W/m² | - |
| 1777810934 | 7.22° C | 50% | 1016.1 hPa | 0 mm | - | 220 W/m² | - |
| 1777810629 | 7.22° C | 53% | 1016 hPa | 0 mm | - | 183 W/m² | - |
| 1777810334 | 7.22° C | 55% | 1016 hPa | 0 mm | - | 193 W/m² | - |
| 1777810029 | 6.67° C | 57% | 1016 hPa | 0 mm | - | 140 W/m² | - |
| 1777809861 | 6.11° C | 58% | 1016.1 hPa | 0 mm | - | 127 W/m² | - |
| 1777809429 | 6.11° C | 59% | 1016.1 hPa | 0 mm | - | 101 W/m² | - |
| 1777809261 | 5.56° C | 60% | 1016.2 hPa | 0 mm | - | 75 W/m² | - |
| 1777808829 | 5.56° C | 62% | 1016.1 hPa | 0 mm | - | 65 W/m² | - |
* Rain latest hour (hover to see other rain measurements)
** Current wind speed in m/s (hover to see current wind gust speed)